Location: Passau
(48.5830°N, 13.4830°E)
Time: 20:12:36
(UTC+02:00)

Vanguard 3 - Pass Details

Date: 24 May 2024
Orbit: 509 x 3231 km, 33.3° (Epoch: 15 June)

Event Time Altitude Azimuth Distance (km) Brightness Sun altitude
Rises 00:20:51 0° 267° (W) 5,470 11.5 -20.0°
Reaches altitude 10° 00:24:34 10° 258° (WSW) 4,825 11.1 -20.1°
Maximum altitude 00:36:41 32° 203° (SSW) 4,160 10.2 -20.4°
Enters shadow 00:43:34 25° 172° (S) 4,811 10.4 -20.5°
Drops below altitude 10° 00:52:13 10° 150° (SSE) 6,155 - -20.6°
Sets 00:57:51 0° 142° (SE) 7,141 - -20.6°
